Boscombe Down, United Kingdom

8:19 AM BST on July 26, 2017 (GMT +0100)
Boscombe Down

Weather History for EGDM - January, 2013

Change the Weather History Date:

Saturday, January 26, 2013

  Actual Average Record
Temperature  
Mean Temperature 40 °F -  
Max Temperature 46 °F 44 °F 53 °F (2003)
Min Temperature 35 °F 34 °F 19 °F (2000)
Degree Days  
Heating Degree Days 24    
Moisture  
Dew Point 39 °F    
Average Humidity 88    
Maximum Humidity 100    
Minimum Humidity 69    
Precipitation  
Precipitation 0.08 in - - ()
Sea Level Pressure  
Sea Level Pressure 29.70 in    
Wind  
Wind Speed 13 mph ()    
Max Wind Speed 26 mph    
Max Gust Speed -    
Visibility 6.1 miles    
Events Rain    
Averages and records for this station are not official NWS values.
T = Trace of Precipitation, MM = Missing Value Source: Averaged Metar Reports

Daily Weather History Graph

Daily Weather History Graph

Search for Another Location

Airport or City:

Trip Planner

Search our weather history database for the weather conditions in past years. The results will help you decide how hot, cold, wet, or windy it might be!

Date:

Astronomy

Jan. 26, 2013 Rise Set
Actual Time 7:52 AM GMT 4:47 PM GMT
Civil Twilight 7:15 AM GMT 5:23 PM GMT
Nautical Twilight 6:35 AM GMT 6:04 PM GMT
Astronomical Twilight 5:56 AM GMT 6:43 PM GMT
Moon 4:32 PM GMT 6:58 AM GMT
Length of Visible Light 10h 08m
Length of Day
8h 54m
Full, 100% of the Moon is Illuminated
Jan 26
Full
Jan 27
Full
Feb 3
Last Quarter
Feb 10
New
Feb 17
First Quarter

Hourly Weather History & Observations

Time (GMT) Temp. Windchill Dew Point Humidity Pressure Visibility Wind Dir Wind Speed Gust Speed Precip Events Conditions
12:50 AM 39.2 °F 29.6 °F 37.4 °F 93% 29.50 in 5.0 mi South 19.6 mph - N/A   Light Drizzle
1:50 AM 37.4 °F 27.8 °F 37.4 °F 100% 29.50 in 4.3 mi SSE 17.3 mph - N/A   Overcast
2:50 AM 38 °F - 37 °F 95% 29.55 in 2 mi SSE 10.4 mph - - Rain Drizzle
2:50 AM 37.4 °F 30.3 °F 37.4 °F 100% 29.53 in 2.2 mi SSE 10.4 mph - N/A   Drizzle
3:50 AM 37.4 °F 32.8 °F 37.4 °F 100% 29.59 in - NNW 5.8 mph - N/A   Light Drizzle
4:50 AM 37.4 °F 28.5 °F 37.4 °F 100% 29.65 in 6.2 mi NNW 15.0 mph - N/A   Partly Cloudy
5:50 AM 38 °F - 36 °F 90% 29.70 in 28 mi NW 13.8 mph - -   Partly Cloudy
5:50 AM 37.4 °F 28.9 °F 35.6 °F 93% 29.68 in 6.2 mi NW 13.8 mph - N/A   Scattered Clouds
6:50 AM 35.6 °F 29.2 °F 35.6 °F 100% 29.71 in 6.2 mi WNW 8.1 mph - N/A   Partly Cloudy
7:50 AM 35.6 °F 31.7 °F 33.8 °F 93% 29.74 in 6.2 mi WNW 4.6 mph - N/A   Scattered Clouds
8:50 AM 36 °F - 33 °F 85% 29.82 in 9 mi West 8.1 mph - -   Clear
8:50 AM 35.6 °F 29.2 °F 33.8 °F 93% 29.80 in - West 8.1 mph - N/A   Clear
9:50 AM 39.2 °F 33.0 °F 35.6 °F 87% 29.83 in - West 9.2 mph - N/A   Clear
10:50 AM 42.8 °F 36.2 °F 37.4 °F 81% 29.83 in - West 12.7 mph - N/A   Clear
11:50 AM 45 °F - 38 °F 69% 29.87 in 12 mi WSW 11.5 mph - -   Scattered Clouds
11:50 AM 44.6 °F 38.8 °F 37.4 °F 76% 29.86 in - WSW 11.5 mph - N/A   Clear
12:50 PM 44.6 °F 39.2 °F 37.4 °F 76% 29.83 in - WSW 10.4 mph - N/A   Clear
1:50 PM 46.4 °F 40.4 °F 37.4 °F 71% 29.83 in 6.2 mi SW 13.8 mph - N/A   Mostly Cloudy
2:50 PM 45 °F - 39 °F 72% 29.85 in 14 mi WSW 15.0 mph - -   Scattered Clouds
2:50 PM 44.6 °F 37.8 °F 39.2 °F 81% 29.83 in 6.2 mi WSW 15.0 mph - N/A   Mostly Cloudy
3:50 PM 44.6 °F 38.4 °F 39.2 °F 81% 29.80 in 6.2 mi SSW 12.7 mph - N/A   Mostly Cloudy
4:50 PM 44.6 °F 38.4 °F 41.0 °F 87% 29.77 in 6.2 mi SSW 12.7 mph - N/A   Overcast
5:50 PM 45 °F - 41 °F 82% 29.78 in 7 mi SSW 16.1 mph - -   Mostly Cloudy
5:50 PM 44.6 °F 37.4 °F 41.0 °F 87% 29.74 in 6.2 mi SSW 16.1 mph - N/A   Mostly Cloudy
6:50 PM 44.6 °F 37.4 °F 41.0 °F 87% 29.71 in 6.2 mi SSW 16.1 mph - N/A   Mostly Cloudy
7:50 PM 46.4 °F 38.3 °F 42.8 °F 87% 29.68 in 6.2 mi SSW 23.0 mph - N/A Rain Light Rain Showers
8:50 PM 44 °F - 42 °F 91% 29.67 in 6 mi South 21.9 mph - - Rain Rain
8:50 PM 44.6 °F 36.1 °F 42.8 °F 93% 29.65 in 6.2 mi South 21.9 mph - N/A Rain Rain
9:50 PM 44.6 °F 35.9 °F 41.0 °F 87% 29.59 in 6.2 mi South 23.0 mph - N/A   Mostly Cloudy
10:50 PM 44.6 °F 35.3 °F 42.8 °F 93% 29.56 in 3.1 mi South 26.5 mph - N/A   Mostly Cloudy
11:50 PM 45 °F - 45 °F 98% 29.53 in 4 mi South 25.3 mph - - Rain Light Rain
11:50 PM 44.6 °F 35.5 °F 44.6 °F 100% 29.50 in 4.3 mi South 25.3 mph - N/A Rain Light Rain